Tuscaloosa, AL

6:52 PM CST on February 24, 2018 (GMT -0600)
Tuscaloosa Municipal

Weather History for KTCL - October, 2011

Change the Weather History Date:

Saturday, October 8, 2011

  Actual Average Record
Temperature  
Mean Temperature 73 °F 67 °F  
Max Temperature 83 °F 80 °F 93 °F (1962)
Min Temperature 62 °F 55 °F 35 °F (1991)
Degree Days  
Heating Degree Days 0 2  
Month to date heating degree days 19 12  
Since 1 July heating degree days 20 19  
Cooling Degree Days 7    
Growing Degree Days 22 (Base 50)    
Moisture  
Dew Point 54 °F    
Average Humidity 55    
Maximum Humidity 72    
Minimum Humidity 37    
Precipitation  
Precipitation 0.00 in 0.11 in 1.90 in (1977)
Month to date precipitation 0.00 0.93  
Year to date precipitation 39.42 40.32  
Sea Level Pressure  
Sea Level Pressure 30.25 in    
Wind  
Wind Speed 7 mph (ENE)    
Max Wind Speed 15 mph    
Max Gust Speed 21 mph    
Visibility 10 miles    
Events      
T = Trace of Precipitation, MM = Missing Value Source: NWS Daily Summary

Daily Weather History Graph

Daily Weather History Graph

Search for Another Location

Airport or City:

Trip Planner

Search our weather history database for the weather conditions in past years. The results will help you decide how hot, cold, wet, or windy it might be!

Date:

Astronomy

Oct. 08, 2011 Rise Set
Actual Time 6:49 AM CDT 6:26 PM CDT
Civil Twilight 6:24 AM CDT 6:50 PM CDT
Nautical Twilight 5:55 AM CDT 7:19 PM CDT
Astronomical Twilight 5:27 AM CDT 7:48 PM CDT
Moon 4:29 PM CDT (10/8) 3:44 AM CDT (10/8)
Length of Visible Light 12h 26m
Length of Day
11h 36m
Waxing Gibbous, 90% of the Moon is Illuminated
Oct 8
Waxing Gibbous
Oct 11
Full
Oct 19
Last Quarter
Oct 26
New
Nov 2
First Quarter

Hourly Weather History & Observations

Time (CDT) Temp. Heat Index Dew Point Humidity Pressure Visibility Wind Dir Wind Speed Gust Speed Precip Events Conditions
12:53 AM 64.0 °F - 51.1 °F 63% 30.25 in 10.0 mi ENE 4.6 mph - N/A   Clear
1:53 AM 63.0 °F - 51.1 °F 65% 30.25 in 10.0 mi ENE 4.6 mph - N/A   Clear
2:53 AM 63.0 °F - 52.0 °F 67% 30.25 in 10.0 mi ENE 3.5 mph - N/A   Clear
3:53 AM 64.0 °F - 53.1 °F 67% 30.26 in 10.0 mi ENE 4.6 mph - N/A   Clear
4:53 AM 63.0 °F - 53.1 °F 70% 30.27 in 10.0 mi ENE 4.6 mph - N/A   Clear
5:53 AM 64.0 °F - 54.0 °F 70% 30.28 in 10.0 mi ENE 3.5 mph - N/A   Clear
6:53 AM 62.6 °F - 53.6 °F 72% 30.30 in 10.0 mi ENE 4.6 mph - N/A   Clear
7:53 AM 64.9 °F - 54.0 °F 68% 30.30 in 10.0 mi East 4.6 mph - N/A   Clear
8:53 AM 69.1 °F - 54.0 °F 58% 30.32 in 10.0 mi East 8.1 mph - N/A   Clear
9:53 AM 72.0 °F - 54.0 °F 53% 30.32 in 10.0 mi East 11.5 mph 17.3 mph N/A   Clear
10:53 AM 75.9 °F - 57.0 °F 52% 30.32 in 10.0 mi East 10.4 mph 18.4 mph N/A   Clear
11:53 AM 78.1 °F - 57.0 °F 48% 30.30 in 10.0 mi East 10.4 mph - N/A   Clear
12:53 PM 80.1 °F 80.2 °F 55.9 °F 43% 30.26 in 10.0 mi East 10.4 mph - N/A   Clear
1:53 PM 82.0 °F 81.4 °F 55.0 °F 39% 30.24 in 10.0 mi East 8.1 mph - N/A   Partly Cloudy
2:53 PM 82.0 °F 81.4 °F 55.0 °F 39% 30.22 in 10.0 mi East 6.9 mph - N/A   Mostly Cloudy
3:53 PM 82.0 °F 81.3 °F 54.0 °F 38% 30.20 in 10.0 mi East 13.8 mph 18.4 mph N/A   Partly Cloudy
4:53 PM 80.1 °F 80.1 °F 55.0 °F 42% 30.19 in 10.0 mi East 9.2 mph 16.1 mph N/A   Partly Cloudy
5:53 PM 78.1 °F - 55.0 °F 45% 30.19 in 10.0 mi East 6.9 mph - N/A   Clear
6:53 PM 72.0 °F - 55.0 °F 55% 30.20 in 10.0 mi ENE 4.6 mph - N/A   Clear
7:53 PM 71.1 °F - 55.9 °F 59% 30.21 in 10.0 mi ENE 6.9 mph - N/A   Clear
8:53 PM 71.1 °F - 55.0 °F 57% 30.22 in 10.0 mi ENE 8.1 mph - N/A   Clear
9:53 PM 71.1 °F - 55.0 °F 57% 30.22 in 10.0 mi ENE 6.9 mph - N/A   Clear
10:53 PM 70.0 °F - 54.0 °F 57% 30.23 in 10.0 mi ENE 6.9 mph - N/A   Clear
11:53 PM 68.0 °F - 53.1 °F 59% 30.22 in 10.0 mi ENE 5.8 mph - N/A   Clear